Location: Aressy
(43.2833°N, 0.3167°W)
Time: 02:06:51
(UTC+00:00)

CZ-4B R/B - Pass Details

Date: 28 January 2021
Orbit: 387 x 458 km, 97.6° (Epoch: 08 March)

Event Time Altitude Azimuth Distance (km) Brightness Sun altitude
Rises 18:33:26 0° 4° (N) 2,429 5.0 -15.6°
Reaches altitude 10° 18:35:35 10° 355° (N) 1,541 4.1 -16.0°
Maximum altitude 18:38:35 34° 289° (WNW) 723 3.0 -16.6°
Drops below altitude 10° 18:41:31 10° 222° (SW) 1,491 4.8 -17.1°
Sets 18:43:34 0° 213° (SSW) 2,335 5.7 -17.4°
